[Date Prev][Date Next][Thread Prev][Thread Next] - [Date Index][Thread Index][Author Index]

2 Line ISS Keps 5-26`



ISS
1 25544U 98067A   02146.49913694  .00024418  00000-0  30237-3 0  4934
2 25544  51.6337 161.9850 0006728 116.1247  24.4856 15.59912043200642


----
Via the sarex mailing list at AMSAT.ORG courtesy of AMSAT-NA.
To unsubscribe, send "unsubscribe sarex" to Majordomo@amsat.org



AMSAT Top AMSAT Home